Time,TemperatureF,DewpointF,PressureIn,WindDirection,WindDirectionDegrees,WindSpeedMPH,WindSpeedGustMPH,Humidity,HourlyPrecipIn,Conditions,Clouds,dailyrainin,SoftwareType,DateUTC
2013-02-28 00:01:00,34.0,7.0,30.21,ESE,103,0.0,0.0,31,0.00,,,0.00,,2013-02-28 07:01:00,
2013-02-28 00:11:00,34.0,7.0,30.21,ESE,103,0.0,0.0,31,0.00,,,0.00,,2013-02-28 07:11:00,
2013-02-28 00:21:00,34.0,7.0,30.22,ESE,103,0.0,0.0,32,0.00,,,0.00,,2013-02-28 07:21:00,
2013-02-28 00:31:00,33.0,7.0,30.21,ESE,103,0.0,0.0,33,0.00,,,0.00,,2013-02-28 07:31:00,
2013-02-28 00:41:00,33.0,7.0,30.21,ESE,103,0.0,0.0,33,0.00,,,0.00,,2013-02-28 07:41:00,
2013-02-28 00:52:00,33.0,7.0,30.21,ESE,103,0.0,0.0,33,0.00,,,0.00,,2013-02-28 07:52:00,
2013-02-28 01:01:00,32.0,6.0,30.22,NNW,347,1.0,4.0,32,0.00,,,0.00,,2013-02-28 08:01:00,
2013-02-28 01:11:00,32.0,6.0,30.22,NNW,347,1.0,4.0,32,0.00,,,0.00,,2013-02-28 08:11:00,
2013-02-28 01:22:00,32.0,4.0,30.22,North,359,5.0,6.0,30,0.00,,,0.00,,2013-02-28 08:22:00,
2013-02-28 01:32:00,32.0,4.0,30.22,North,359,3.0,4.0,30,0.00,,,0.00,,2013-02-28 08:32:00,
2013-02-28 01:42:00,32.0,4.0,30.22,North,359,3.0,4.0,30,0.00,,,0.00,,2013-02-28 08:42:00,
2013-02-28 01:53:00,31.0,4.0,30.21,NW,316,0.0,3.0,31,0.00,,,0.00,,2013-02-28 08:53:00,
2013-02-28 02:03:00,31.0,4.0,30.22,NNE,18,0.0,0.0,31,0.00,,,0.00,,2013-02-28 09:03:00,
2013-02-28 02:11:00,31.0,4.0,30.22,NNE,18,0.0,0.0,31,0.00,,,0.00,,2013-02-28 09:11:00,
2013-02-28 02:22:00,31.0,4.0,30.21,NNE,18,0.0,0.0,31,0.00,,,0.00,,2013-02-28 09:22:00,
2013-02-28 02:32:00,30.0,4.0,30.21,NNE,18,0.0,0.0,32,0.00,,,0.00,,2013-02-28 09:32:00,
2013-02-28 02:42:00,30.0,4.0,30.21,NNE,18,0.0,0.0,32,0.00,,,0.00,,2013-02-28 09:42:00,
2013-02-28 02:52:00,30.0,4.0,30.21,NNE,18,0.0,0.0,32,0.00,,,0.00,,2013-02-28 09:52:00,
2013-02-28 03:01:00,30.0,4.0,30.20,NNE,18,0.0,0.0,32,0.00,,,0.00,,2013-02-28 10:01:00,
2013-02-28 03:11:00,30.0,4.0,30.20,NNE,18,0.0,0.0,33,0.00,,,0.00,,2013-02-28 10:11:00,
2013-02-28 03:22:00,30.0,4.0,30.20,NNE,18,0.0,0.0,33,0.00,,,0.00,,2013-02-28 10:22:00,
2013-02-28 03:32:00,29.0,3.0,30.20,North,359,4.0,6.0,32,0.00,,,0.00,,2013-02-28 10:32:00,
2013-02-28 03:42:00,29.0,3.0,30.20,North,359,4.0,6.0,32,0.00,,,0.00,,2013-02-28 10:42:00,
2013-02-28 03:52:00,30.0,4.0,30.21,NNW,342,3.0,8.0,32,0.00,,,0.00,,2013-02-28 10:52:00,
2013-02-28 04:01:00,30.0,6.0,30.21,North,352,4.0,6.0,35,0.00,,,0.00,,2013-02-28 11:01:00,
2013-02-28 04:11:00,30.0,6.0,30.21,North,352,4.0,6.0,35,0.00,,,0.00,,2013-02-28 11:11:00,
2013-02-28 04:21:00,30.0,4.0,30.21,NE,38,2.0,5.0,33,0.00,,,0.00,,2013-02-28 11:21:00,
2013-02-28 04:32:00,29.0,4.0,30.21,North,359,4.0,5.0,33,0.00,,,0.00,,2013-02-28 11:32:00,
2013-02-28 04:42:00,29.0,4.0,30.21,North,359,4.0,5.0,33,0.00,,,0.00,,2013-02-28 11:42:00,
2013-02-28 04:52:00,29.0,4.0,30.21,NNE,14,3.0,6.0,34,0.00,,,0.00,,2013-02-28 11:52:00,
2013-02-28 05:01:00,29.0,4.0,30.21,North,6,0.0,4.0,33,0.00,,,0.00,,2013-02-28 12:01:00,
2013-02-28 05:11:00,29.0,4.0,30.21,North,6,0.0,4.0,33,0.00,,,0.00,,2013-02-28 12:11:00,
2013-02-28 05:21:00,29.0,4.0,30.21,NNW,342,2.0,4.0,34,0.00,,,0.00,,2013-02-28 12:21:00,
2013-02-28 05:32:00,29.0,5.0,30.22,North,11,0.0,3.0,35,0.00,,,0.00,,2013-02-28 12:32:00,
2013-02-28 05:42:00,29.0,5.0,30.22,North,11,0.0,3.0,35,0.00,,,0.00,,2013-02-28 12:42:00,
2013-02-28 05:52:00,29.0,4.0,30.23,NNE,15,2.0,7.0,33,0.00,,,0.00,,2013-02-28 12:52:00,
2013-02-28 06:01:00,29.0,3.0,30.23,North,352,4.0,8.0,32,0.00,,,0.00,,2013-02-28 13:01:00,
2013-02-28 06:11:00,28.0,3.0,30.24,NNW,335,3.0,5.0,33,0.00,,,0.00,,2013-02-28 13:11:00,
2013-02-28 06:21:00,28.0,3.0,30.24,NNW,335,3.0,5.0,33,0.00,,,0.00,,2013-02-28 13:21:00,
2013-02-28 06:32:00,28.0,3.0,30.25,North,7,2.0,7.0,33,0.00,,,0.00,,2013-02-28 13:32:00,
2013-02-28 06:42:00,28.0,3.0,30.25,North,7,2.0,7.0,33,0.00,,,0.00,,2013-02-28 13:42:00,
2013-02-28 06:52:00,28.0,4.0,30.25,NNE,13,1.0,2.0,35,0.00,,,0.00,,2013-02-28 13:52:00,
2013-02-28 07:01:00,27.0,4.0,30.26,NNW,335,1.0,3.0,36,0.00,,,0.00,,2013-02-28 14:01:00,
2013-02-28 07:11:00,28.0,3.0,30.27,NNW,347,3.0,4.0,34,0.00,,,0.00,,2013-02-28 14:11:00,
2013-02-28 07:22:00,28.0,3.0,30.27,NNW,347,3.0,4.0,34,0.00,,,0.00,,2013-02-28 14:22:00,
2013-02-28 07:32:00,29.0,4.0,30.28,NNE,14,1.0,4.0,34,0.00,,,0.00,,2013-02-28 14:32:00,
2013-02-28 07:42:00,31.0,6.0,30.29,NNE,27,1.0,6.0,34,0.00,,,0.00,,2013-02-28 14:42:00,
2013-02-28 07:52:00,31.0,6.0,30.29,NNE,27,1.0,6.0,34,0.00,,,0.00,,2013-02-28 14:52:00,
2013-02-28 08:02:00,33.0,6.0,30.29,NE,55,3.0,6.0,32,0.00,,,0.00,,2013-02-28 15:02:00,
2013-02-28 08:11:00,34.0,6.0,30.30,NE,35,4.0,7.0,30,0.00,,,0.00,,2013-02-28 15:11:00,
2013-02-28 08:21:00,34.0,6.0,30.30,NE,35,4.0,7.0,30,0.00,,,0.00,,2013-02-28 15:21:00,
2013-02-28 08:32:00,36.0,6.0,30.31,NE,49,2.0,8.0,28,0.00,,,0.00,,2013-02-28 15:32:00,
2013-02-28 08:41:00,36.0,6.0,30.31,NE,49,2.0,8.0,28,0.00,,,0.00,,2013-02-28 15:41:00,
2013-02-28 08:52:00,38.0,7.0,30.32,NNE,18,4.0,8.0,27,0.00,,,0.00,,2013-02-28 15:52:00,
2013-02-28 09:01:00,39.0,7.0,30.31,North,359,8.0,11.0,26,0.00,,,0.00,,2013-02-28 16:01:00,
2013-02-28 09:11:00,40.0,7.0,30.31,North,349,5.0,10.0,25,0.00,,,0.00,,2013-02-28 16:11:00,
2013-02-28 09:22:00,40.0,7.0,30.31,North,349,5.0,10.0,25,0.00,,,0.00,,2013-02-28 16:22:00,
2013-02-28 09:32:00,41.0,8.0,30.32,North,3,7.0,10.0,25,0.00,,,0.00,,2013-02-28 16:32:00,
2013-02-28 09:42:00,41.0,8.0,30.32,North,3,7.0,10.0,25,0.00,,,0.00,,2013-02-28 16:42:00,
2013-02-28 09:52:00,43.0,8.0,30.32,North,350,4.0,9.0,23,0.00,,,0.00,,2013-02-28 16:52:00,
2013-02-28 10:01:00,44.0,8.0,30.32,NE,56,5.0,8.0,22,0.00,,,0.00,,2013-02-28 17:01:00,
2013-02-28 10:11:00,44.0,7.0,30.32,North,349,6.0,9.0,21,0.00,,,0.00,,2013-02-28 17:11:00,
2013-02-28 10:21:00,44.0,7.0,30.32,North,349,6.0,9.0,21,0.00,,,0.00,,2013-02-28 17:21:00,
2013-02-28 10:32:00,47.0,7.0,30.31,North,11,4.0,8.0,19,0.00,,,0.00,,2013-02-28 17:32:00,
2013-02-28 10:42:00,47.0,7.0,30.31,North,11,4.0,8.0,19,0.00,,,0.00,,2013-02-28 17:42:00,
2013-02-28 10:52:00,47.0,6.0,30.30,NNW,346,2.0,7.0,18,0.00,,,0.00,,2013-02-28 17:52:00,
2013-02-28 11:02:00,49.0,6.0,30.30,NNW,333,2.0,4.0,17,0.00,,,0.00,,2013-02-28 18:02:00,
2013-02-28 11:11:00,50.0,7.0,30.29,North,359,3.0,6.0,17,0.00,,,0.00,,2013-02-28 18:11:00,
2013-02-28 11:22:00,50.0,7.0,30.29,North,359,3.0,6.0,17,0.00,,,0.00,,2013-02-28 18:22:00,
2013-02-28 11:32:00,51.0,6.0,30.29,SW,228,0.0,5.0,16,0.00,,,0.00,,2013-02-28 18:32:00,
2013-02-28 11:42:00,52.0,6.0,30.29,WSW,255,1.0,6.0,15,0.00,,,0.00,,2013-02-28 18:42:00,
2013-02-28 11:52:00,52.0,6.0,30.29,WSW,255,1.0,6.0,15,0.00,,,0.00,,2013-02-28 18:52:00,
2013-02-28 12:01:00,53.0,7.0,30.29,ESE,120,4.0,9.0,15,0.00,,,0.00,,2013-02-28 19:01:00,
2013-02-28 12:11:00,54.0,6.0,30.28,West,259,1.0,7.0,14,0.00,,,0.00,,2013-02-28 19:11:00,
2013-02-28 12:21:00,54.0,6.0,30.28,West,259,1.0,7.0,14,0.00,,,0.00,,2013-02-28 19:21:00,
2013-02-28 12:32:00,54.0,4.0,30.27,NE,42,3.0,9.0,13,0.00,,,0.00,,2013-02-28 19:32:00,
2013-02-28 12:41:00,54.0,4.0,30.27,NE,42,3.0,9.0,13,0.00,,,0.00,,2013-02-28 19:41:00,
2013-02-28 12:52:00,55.0,3.0,30.27,NNW,336,3.0,6.0,12,0.00,,,0.00,,2013-02-28 19:52:00,
2013-02-28 13:01:00,56.0,2.0,30.26,North,353,1.0,6.0,11,0.00,,,0.00,,2013-02-28 20:01:00,
2013-02-28 13:12:00,56.0,2.0,30.26,North,353,1.0,6.0,11,0.00,,,0.00,,2013-02-28 20:12:00,
2013-02-28 13:21:00,56.0,4.0,30.25,NW,322,2.0,11.0,12,0.00,,,0.00,,2013-02-28 20:21:00,
2013-02-28 13:32:00,57.0,3.0,30.25,WNW,284,4.0,8.0,11,0.00,,,0.00,,2013-02-28 20:32:00,
2013-02-28 13:42:00,57.0,3.0,30.25,WNW,284,4.0,8.0,11,0.00,,,0.00,,2013-02-28 20:42:00,
2013-02-28 13:52:00,57.0,1.0,30.24,West,274,5.0,9.0,10,0.00,,,0.00,,2013-02-28 20:52:00,
2013-02-28 14:01:00,57.0,1.0,30.24,SW,224,2.0,7.0,10,0.00,,,0.00,,2013-02-28 21:01:00,
2013-02-28 14:11:00,57.0,1.0,30.24,SW,224,2.0,7.0,10,0.00,,,0.00,,2013-02-28 21:11:00,
2013-02-28 14:22:00,57.0,1.0,30.23,SSW,204,4.0,11.0,10,0.00,,,0.00,,2013-02-28 21:22:00,
2013-02-28 14:32:00,58.0,0.0,30.23,NNE,15,7.0,14.0,9,0.00,,,0.00,,2013-02-28 21:32:00,
2013-02-28 14:41:00,58.0,0.0,30.23,NNE,15,7.0,14.0,9,0.00,,,0.00,,2013-02-28 21:41:00,
2013-02-28 14:52:00,57.0,-1.0,30.23,NW,326,2.0,11.0,9,0.00,,,0.00,,2013-02-28 21:52:00,
2013-02-28 15:01:00,58.0,-3.0,30.23,NNW,340,6.0,11.0,8,0.00,,,0.00,,2013-02-28 22:01:00,
2013-02-28 15:11:00,59.0,-2.0,30.23,WNW,301,0.0,12.0,8,0.00,,,0.00,,2013-02-28 22:11:00,
2013-02-28 15:21:00,59.0,-2.0,30.23,WNW,301,0.0,12.0,8,0.00,,,0.00,,2013-02-28 22:21:00,
2013-02-28 15:32:00,59.0,-5.0,30.23,NNW,338,1.0,14.0,7,0.00,,,0.00,,2013-02-28 22:32:00,
2013-02-28 15:41:00,59.0,-5.0,30.23,NNW,338,1.0,14.0,7,0.00,,,0.00,,2013-02-28 22:41:00,
2013-02-28 15:52:00,59.0,-5.0,30.23,NNW,333,3.0,14.0,7,0.00,,,0.00,,2013-02-28 22:52:00,
2013-02-28 16:01:00,59.0,-8.0,30.23,NNE,31,4.0,6.0,6,0.00,,,0.00,,2013-02-28 23:01:00,
2013-02-28 16:11:00,60.0,-7.0,30.22,NNE,20,1.0,5.0,6,0.00,,,0.00,,2013-02-28 23:11:00,
2013-02-28 16:22:00,60.0,-7.0,30.22,NNE,20,1.0,5.0,6,0.00,,,0.00,,2013-02-28 23:22:00,
2013-02-28 16:31:00,60.0,-7.0,30.22,WNW,290,5.0,11.0,6,0.00,,,0.00,,2013-02-28 23:31:00,
2013-02-28 16:41:00,60.0,-7.0,30.22,WNW,290,5.0,11.0,6,0.00,,,0.00,,2013-02-28 23:41:00,
2013-02-28 16:53:00,60.0,-7.0,30.22,North,350,5.0,10.0,6,0.00,,,0.00,,2013-02-28 23:53:00,
2013-02-28 17:01:00,60.0,-7.0,30.22,NW,322,2.0,9.0,6,0.00,,,0.00,,2013-03-01 00:01:00,
2013-02-28 17:11:00,60.0,-7.0,30.22,NW,322,2.0,9.0,6,0.00,,,0.00,,2013-03-01 00:11:00,
2013-02-28 17:22:00,59.0,-8.0,30.22,NW,318,6.0,11.0,6,0.00,,,0.00,,2013-03-01 00:22:00,
2013-02-28 17:32:00,58.0,-9.0,30.22,NNW,342,4.0,10.0,6,0.00,,,0.00,,2013-03-01 00:32:00,
2013-02-28 17:41:00,58.0,-9.0,30.22,NNW,342,4.0,10.0,6,0.00,,,0.00,,2013-03-01 00:41:00,
2013-02-28 17:52:00,58.0,-9.0,30.22,NNE,13,4.0,9.0,6,0.00,,,0.00,,2013-03-01 00:52:00,
2013-02-28 18:01:00,57.0,-6.0,30.22,NW,322,3.0,6.0,7,0.00,,,0.00,,2013-03-01 01:01:00,
2013-02-28 18:11:00,56.0,-7.0,30.22,North,359,3.0,6.0,7,0.00,,,0.00,,2013-03-01 01:11:00,
2013-02-28 18:21:00,56.0,-7.0,30.22,North,359,3.0,6.0,7,0.00,,,0.00,,2013-03-01 01:21:00,
2013-02-28 18:32:00,55.0,-5.0,30.23,NNW,332,3.0,5.0,8,0.00,,,0.00,,2013-03-01 01:32:00,
2013-02-28 18:42:00,55.0,-5.0,30.23,NNW,332,3.0,5.0,8,0.00,,,0.00,,2013-03-01 01:42:00,
2013-02-28 18:52:00,54.0,-6.0,30.23,NNW,339,2.0,5.0,8,0.00,,,0.00,,2013-03-01 01:52:00,
2013-02-28 19:01:00,53.0,-4.0,30.23,North,357,0.0,1.0,9,0.00,,,0.00,,2013-03-01 02:01:00,
2013-02-28 19:11:00,51.0,0.0,30.23,WSW,248,1.0,2.0,12,0.00,,,0.00,,2013-03-01 02:11:00,
2013-02-28 19:21:00,51.0,0.0,30.23,WSW,248,1.0,2.0,12,0.00,,,0.00,,2013-03-01 02:21:00,
2013-02-28 19:31:00,50.0,1.0,30.24,WSW,249,0.0,2.0,13,0.00,,,0.00,,2013-03-01 02:31:00,
2013-02-28 19:42:00,50.0,1.0,30.24,WSW,249,0.0,2.0,13,0.00,,,0.00,,2013-03-01 02:42:00,
2013-02-28 19:52:00,48.0,1.0,30.24,WSW,249,0.0,0.0,14,0.00,,,0.00,,2013-03-01 02:52:00,
2013-02-28 20:01:00,47.0,2.0,30.24,WSW,249,0.0,0.0,15,0.00,,,0.00,,2013-03-01 03:01:00,
2013-02-28 20:11:00,47.0,3.0,30.25,WSW,249,0.0,0.0,16,0.00,,,0.00,,2013-03-01 03:11:00,
2013-02-28 20:21:00,47.0,3.0,30.25,WSW,249,0.0,0.0,16,0.00,,,0.00,,2013-03-01 03:21:00,
2013-02-28 20:32:00,45.0,3.0,30.25,WSW,249,0.0,0.0,17,0.00,,,0.00,,2013-03-01 03:32:00,
2013-02-28 20:42:00,45.0,3.0,30.25,WSW,249,0.0,0.0,17,0.00,,,0.00,,2013-03-01 03:42:00,
2013-02-28 20:52:00,44.0,2.0,30.26,WSW,249,0.0,0.0,17,0.00,,,0.00,,2013-03-01 03:52:00,
2013-02-28 21:01:00,44.0,4.0,30.26,WSW,249,0.0,0.0,19,0.00,,,0.00,,2013-03-01 04:01:00,
2013-02-28 21:11:00,44.0,4.0,30.26,WSW,249,0.0,0.0,19,0.00,,,0.00,,2013-03-01 04:11:00,
2013-02-28 21:21:00,42.0,5.0,30.26,WSW,249,0.0,0.0,21,0.00,,,0.00,,2013-03-01 04:21:00,
2013-02-28 21:32:00,42.0,6.0,30.26,WSW,249,0.0,0.0,22,0.00,,,0.00,,2013-03-01 04:32:00,
2013-02-28 21:42:00,42.0,6.0,30.26,WSW,249,0.0,0.0,22,0.00,,,0.00,,2013-03-01 04:42:00,
2013-02-28 21:52:00,41.0,6.0,30.26,WSW,249,0.0,0.0,23,0.00,,,0.00,,2013-03-01 04:52:00,
2013-02-28 22:02:00,40.0,6.0,30.27,WSW,249,0.0,0.0,24,0.00,,,0.00,,2013-03-01 05:02:00,
2013-02-28 22:11:00,40.0,6.0,30.27,WSW,249,0.0,0.0,24,0.00,,,0.00,,2013-03-01 05:11:00,
2013-02-28 22:22:00,39.0,7.0,30.27,WSW,249,0.0,0.0,26,0.00,,,0.00,,2013-03-01 05:22:00,
2013-02-28 22:32:00,39.0,7.0,30.28,WSW,249,0.0,0.0,26,0.00,,,0.00,,2013-03-01 05:32:00,
2013-02-28 22:42:00,39.0,7.0,30.28,WSW,249,0.0,0.0,26,0.00,,,0.00,,2013-03-01 05:42:00,
2013-02-28 22:53:00,37.0,6.0,30.28,WSW,249,0.0,0.0,27,0.00,,,0.00,,2013-03-01 05:53:00,
2013-02-28 23:02:00,37.0,7.0,30.28,WSW,249,0.0,0.0,28,0.00,,,0.00,,2013-03-01 06:02:00,
2013-02-28 23:11:00,37.0,6.0,30.27,WSW,249,0.0,0.0,27,0.00,,,0.00,,2013-03-01 06:11:00,
2013-02-28 23:22:00,37.0,6.0,30.27,WSW,249,0.0,0.0,27,0.00,,,0.00,,2013-03-01 06:22:00,
2013-02-28 23:32:00,37.0,6.0,30.27,WSW,249,0.0,0.0,27,0.00,,,0.00,,2013-03-01 06:32:00,
2013-02-28 23:42:00,37.0,6.0,30.27,WSW,249,0.0,0.0,27,0.00,,,0.00,,2013-03-01 06:42:00,
2013-02-28 23:52:00,36.0,8.0,30.27,WSW,249,0.0,0.0,31,0.00,,,0.00,,2013-03-01 06:52:00,